Flag for China Weather past 2 weeks in Foochow, Fujian, China

Now
68 °F

Mostly cloudy.


Feels Like: 68 °F
Forecast: 65 / 73 °F
Wind: 3 mph from Northwest

Location: Fuzhou Airport

Current Time: May 22, 2015 at 9:50:43 PM

Latest Report: May 22, 2015 at 9:00 PM


Visibility: 4 mi

Pressure: 29.86 "Hg

Humidity: 88%

Dew point: 64 °F

Location of FoochowLocation

Historic Weather in Foochow — Graph

°F

Foochow temperature yesterday

Maximum temperature yesterday: 68 °F (at 12:00 AM)
Minimum temperature yesterday: 59 °F (at 11:00 PM)
Average temperature yesterday: 65 °F

Past Weeks' High & Low Weather Summary

 TemperatureHumidityPressure
High88 °F (May 14, 1:00 PM)100% (May 16, 5:00 PM)30.04 "Hg (May 16, 5:00 PM)
Low59 °F (May 13, 2:00 AM)36% (May 13, 10:00 AM)29.65 "Hg (May 18, 4:00 PM)
Average72 °F80%29.84 "Hg
* Reported May 7 8:00 PM — May 22 8:00 PM, Foochow, Weather by CustomWeather, © 2015

Note: Actual official high and low records may vary slightly from our data, if they occured in-between our weather recording intervals... More about our weather records

Advertising

Foochow weather history for previous 24 hours

 ConditionsComfort  
Time TempWeatherWind HumidityBarometerVisibility
8:00 PM
Fri, May 22
68 °FMostly cloudy.3 mph88%29.83 "HgN/A
7:00 PM66 °FMostly cloudy.3 mph94%29.83 "HgN/A
6:00 PM66 °FLight rain. Mostly cloudy.3 mph94%29.83 "Hg6 mi
5:00 PM66 °FLight rain. More clouds than sun.3 mph94%29.80 "Hg6 mi
4:00 PM68 °FMostly cloudy.3 mph83%29.83 "HgN/A
3:00 PM68 °FOvercast.3 mph83%29.83 "HgN/A
2:00 PM68 °FOvercast.6 mph83%29.86 "HgN/A
1:00 PM68 °FOvercast.6 mph83%29.86 "HgN/A
12:00 PM68 °FMostly cloudy.8 mph83%29.89 "HgN/A
11:00 AM66 °FMostly cloudy.6 mph83%29.89 "HgN/A
10:00 AM66 °FMostly cloudy.6 mph83%29.89 "HgN/A
9:00 AM64 °FOvercast.3 mph88%29.92 "HgN/A
8:00 AM64 °FMostly cloudy.6 mph88%29.92 "HgN/A
7:00 AM63 °FMostly cloudy.3 mph88%29.92 "HgN/A
6:00 AM63 °FMostly cloudy.6 mph88%29.89 "HgN/A
5:00 AM61 °FMostly cloudy.3 mph94%29.92 "HgN/A
4:00 AM61 °FLight rain. Low clouds.6 mph94%29.92 "Hg5 mi
3:00 AM61 °FLight rain. Low clouds.6 mph94%29.92 "Hg5 mi
2:00 AM61 °FLight rain. Mostly cloudy.3 mph88%29.95 "Hg4 mi
1:00 AM59 °FMostly cloudy.3 mph94%29.95 "Hg5 mi
12:00 AM59 °FLight rain. Mostly cloudy.6 mph94%29.95 "Hg4 mi
11:00 PM
Thu, May 21
59 °FLight rain. Mostly cloudy.8 mph94%29.98 "Hg4 mi
10:00 PM61 °FLight rain. Partly cloudy.6 mph94%29.98 "Hg5 mi
9:00 PM61 °FLight rain. Fog.6 mph94%29.98 "Hg3 mi
Weather by CustomWeather, © 2015

See weather overviewHow to use our weather pages